Location: Dodgeville, WI 53533, USA
(43.0344°N, 90.0900°W)
Time: 19:07:52
(UTC-06:00)

N. Korean satellite - Pass Details

Date: 27 January 2021
Orbit: 451 x 502 km, 97.2° (Epoch: 06 March)

Event Time Altitude Azimuth Distance (km) Brightness Sun altitude
Rises 05:40:54 0° 8° (N) 2,500 10.2 -18.2°
Reaches altitude 10° 05:42:58 10° 5° (N) 1,613 9.2 -17.8°
Maximum altitude 05:46:23 62° 285° (WNW) 517 6.3 -17.2°
Drops below altitude 10° 05:49:44 10° 204° (SSW) 1,583 9.0 -16.6°
Sets 05:51:45 0° 201° (SSW) 2,447 10.0 -16.2°
